Regional Weather Roundup
Issued by NWS Upton, NY

Current Version | Previous Version | Text Only | Print | Product List | Glossary Off
Versions: 1 2 3 4 5 6 7 8 9 10 11 12 13 14 15 16 17 18 19 20 21 22 23 24 25 26 27 28 29 30 31 32 33 34 35 36 37 38 39 40 41 42 43 44 45 46 47 48 49 50
208 ASUS41 KOKX 191408 RWROKX REGIONAL WEATHER ROUNDUP NATIONAL WEATHER SERVICE NEW YORK NY 900 AM EST SUN FEB 19 2017 NOTE: "FAIR" INDICATES FEW OR NO CLOUDS BELOW 12,000 FEET WITH NO SIGNIFICANT WEATHER AND/OR OBSTRUCTIONS TO VISIBILITY. NYZ071-072-176-178-NJZ106-104-191500- NEW YORK CITY METRO AREA CITY SKY/WX TMP DP RH WIND PRES REMARKS Central Park CLOUDY 57 35 43 W6 29.83R Wall St Helipt NOT AVBL LaGuardia APRT CLOUDY 59 36 42 W7 29.80R Kennedy INTL CLOUDY 56 38 50 SW9 29.82R Breezy Point N/A 48 N/A N/A W6 N/A Newark/Liberty CLOUDY 56 36 47 W6 29.81R Teterboro CLOUDY 51 39 63 CALM 29.80R $$ NYZ177-179-078>081-191500- LONG ISLAND NEW YORK CITY SKY/WX TMP DP RH WIND PRES REMARKS Jones Beach N/A 48 N/A N/A W10 N/A Matinecock PT N/A 54 N/A N/A W9 N/A Farmingdale CLOUDY 51 37 58 W6 29.80R MacArthur/ISP CLOUDY 52 38 58 W7 29.79R Shirley CLOUDY 52 37 56 SW5 29.80R Westhampton CLOUDY 50 35 56 SW5 29.80R Southampton NOT AVBL Bridgehampton NOT AVBL East Hampton PTSUNNY 54 35 49 CALM 29.77R Montauk N/A 49 35 58 W7 29.77R $$ NYZ052-065-067-191500- HUDSON VALLEY CITY SKY/WX TMP DP RH WIND PRES REMARKS White Plains CLOUDY 55 35 47 W10G16 29.78R Newburgh MOSUNNY 48 37 66 W12 29.80R Montgomery PTSUNNY 48 36 63 SW5 29.79R Poughkeepsie CLOUDY 39 32 76 CALM 29.78R Albany PTSUNNY 41 34 76 CALM 29.77R $$ NJZ001-105-106-008-010-013-015-019>022-104-191500- NEW JERSEY CITY SKY/WX TMP DP RH WIND PRES REMARKS Newark/Liberty CLOUDY 56 36 47 W6 29.81R Teterboro CLOUDY 51 39 63 CALM 29.80R Caldwell PTSUNNY 51 36 56 CALM 29.81R Somerville CLOUDY 46 36 68 CALM 29.81R Linden NOT AVBL Sussex MOSUNNY 41 34 76 CALM 29.81R Andover N/A 45 35 68 CALM 29.82R Trenton CLOUDY 58 38 47 W6 29.83R Millville CLOUDY 57 39 51 W5 29.85S Atlantic City CLOUDY 57 35 43 W6 29.85R Wrightstown CLOUDY 58 38 45 W6 29.82R Toms River CLOUDY 58 39 49 W5 29.84R Belmar CLOUDY 57 37 47 W8 29.84R $$ PAZ047>061-062-071-191500- EASTERN PENNSYLVANIA CITY SKY/WX TMP DP RH WIND PRES REMARKS Philadelphia CLOUDY 60 38 43 NW13 29.86R Allentown MOSUNNY 58 38 47 W12 29.83R Scranton PTSUNNY 51 38 60 SW9 29.83R $$ CTZ002-004>006-009-010-012-RIZ004-006-007-MAZ004-011-015-191500- SOUTHERN NEW ENGLAND IN CT CITY SKY/WX TMP DP RH WIND PRES REMARKS Bradley INTL PTSUNNY 48 35 60 W8 29.75R Hartford MOSUNNY 45 34 65 SE3 29.76R Danbury CLOUDY 48 35 60 SW8 29.78R Wtrbury/Oxford PTSUNNY 50 34 53 W5 29.78R Bridgeport SUNNY 53 37 54 SW5 29.78R Meriden MOSUNNY 42 32 67 CALM 29.77R New Haven PTSUNNY 45 36 70 CALM 29.77R Chester N/A 54 34 47 W6 29.76R Groton SUNNY 52 36 54 W9 29.75R Wilimantic MOSUNNY 49 35 58 VRB5 29.76R IN RI CITY SKY/WX TMP DP RH WIND PRES REMARKS Providence PTSUNNY 52 35 52 W14G20 29.72R Block Island SUNNY 52 37 56 W12 29.76R Westerly SUNNY 54 35 48 VRB3 29.75R IN MA CITY SKY/WX TMP DP RH WIND PRES REMARKS Boston CLOUDY 46 36 68 SW12 29.70R Worcester MOSUNNY 45 33 63 SW10 29.70R Westfield PTSUNNY 39 32 76 S6 29.73R WCI 35 Provincetown MOSUNNY 48 37 65 W15 29.70R Nantucket SUNNY 55 38 52 W10 29.71S $$ ANZ330-335-338-340-345-350-353-355-191500- COASTAL MARINE OBSERVATIONS STATION/POSITION TIME SKY/WX TEMP WIND PRES VSBY WAVE AIR SEA DIR/SP/G HT/PER (UTC) (F) (DEG/KT/KT) (MB) (MI) (FT/S) NY HARB ENTRANCE 1250 47 41 250/ 8/ 8 1008.7 2/ 5 20 S FIRE ISLAND 1350 45 40 240/ 8/ 8 1009.5 3/ 5 GREAT SOUTH BAY NOT AVBL 23 SSW MONTAUK P 1250 45 44 1008.1 4/ 6 15 E BARNEGAT LI 1330 42 N/A 2/ 6 HUDSON CANYON 1250 51 1009.4 4/ 6 KINGS POINT 1348 54 38 1009.0 EXECUTION ROCKS NOT AVBL CENTRAL LI SOUND 1315 41 270/ 6/ 8 N/A 1 EASTERN LI SOUND NOT AVBL ROBBINS REEF 1348 56 270/ 10/ 12 1009.6 $$ >>>>>>>>>>>>>>>>>>>>>>>>>>>> KEY <<<<<<<<<<<<<<<<<<<<<<<<<<< > < > SKY/WX - Sky Condition/Present Weather < > TMP - Temperature in Fahrenheit < > DP - Dew Point in Fahrenheit < > RH - Relative Humidity in Percent < > WIND - Direction (from) and Speed in MPH < > PRES - Mean Sea Level Pressure (inches of Hg) < > WCI - Wind Chill Index < > VSB - VISIBILITY IN MILES < > HX - HEAT INDEX < > TC - TEMPERATURE IN CELSIUS < > VRB - VARIABLE WIND DIRECTION < > < >>>>>>>>>>>>>>>>>>>>>>>>>>>> KEY <<<<<<<<<<<<<<<<<<<<<<<<<<<

USA.gov is the U.S. government's official web portal to all federal, state and local government web resources and services.